SCP
0 0 0 0 0 0 0 0 0 0 0 0 0 0 0 0 0 0 0 0 0 0 0 0 0 0 0 0 0 0 0 0 0 0 0 0 0 0
0 0 0 0 0 0 0 0 0 0 0 0 0 0 0 0 0 0 0 0 0 0 0 0 0 0 0 0 0 0 0 0 0 0 0 0 0 0
0 0 0 0 0 0 0 0 0 0 0 0 0 0 0 0 0 0 0 0 0 0 0 0 0 0 0 0 0 0 0 0 0 0 0 0 0 0
0 0 0 0 0 0 0 0 0 0 0 0 0 0 0 0 0 0 0 0 0 0 -0 0 0 0 0 0 0 0 0 0 0 0 0 0 0 0
0 0 0 0 0 0 0 0 0 0 0 0 0 0 0 0 0 0 0 0 0 0 -0 0 0 0 0 0 0 0 0 0 0 0 0 0 0 0
0 0 0 0 0 0 0 0 0 0 0 0 0 0 0 0 0 0 0 0 0 0 -0 0 0 0 0 0 0 0 0 0 0 0 0 0 0 0
0 0 0 0 0 0 0 0 0 0 0 0 0 0 0 0 0 0 0 0 0 0 0 0 0 0 0 0 0 0 0 0 0 0 0 0 0 0
0 0 0 0 0 0 0 0 0 0 0 0 0 0 0 0 0 0 0 0 0 0 0 0 0 0 0 0 -0 -0 0 0 0 0 0 0 0 0
0 0 0 0 0 0 0 0 0 0 0 0 0 0 0 0 0 0 0 0 0 0 0 0 0 0 0 0 -0 -0 0 0 0 0 0 0 0 0
0 0 0 0 0 0 0 0 0 0 0 0 0 0 0 0 0 0 0 0 0 0 0 0 0 0 0 0 -0 -0 0 0 0 0 0 0 0 0
0 0 0 0 0 0 0 0 0 0 0 0 0 0 0 0 0 0 0 0 0 0 0 0 0 0 0 0 0 0 0 0 0 0 0 0 0 -0
0 0 0 0 0 0 0 0 0 0 0 0 0 0 0 0 0 0 0 0 0 0 0 0 0 0 0 0 0 0 0 0 0 0 0 0 -0 0
0 0 0 0 0 0 0 0 0 0 0 0 0 0 0 0 0 0 0 0 0 0 0 0 0 0 0 0 0 0 0 0 0 0 0 -0 -0 0
0 0 0 0 0 0 0 0 0 0 0 0 0 0 0 0 0 0 0 0 0 0 0 0 0 0 0 0 0 0 0 0 0 0 0 0 -0 -0
0 0 0 0 0 0 0 0 0 0 0 0 0 0 0 0 0 0 0 0 0 0 0 0 0 0 0 0 0 0 0 0 0 0 0 0 0 0
0 0 0 0 0 0 0 0 0 0 0 0 0 0 0 0 0 0 0 0 0 0 0 0 0 0 0 0 0 0 0 0 0 0 0 0 0 0
0 0 0 0 0 0 0 0 0 0 0 0 0 0 0 0 0 0 0 0 0 0 0 0 0 0 0 0 0 0 0 0 0 0 0 -0 0 -0
0 0 0 0 0 0 0 0 0 0 0 0 0 0 0 0 0 0 0 0 0 0 0 0 0 0 0 0 0 0 0 0 0 0 -0 -0 -0 -0
0 0 0 0 0 0 0 0 0 0 0 0 0 0 0 0 0 0 0 0 0 0 0 0 0 0 0 0 0 0 0 0 0 -0 -0 -0 -0 0
0 0 0 0 0 0 0 0 0 0 0 0 0 0 0 0 0 0 0 0 0 0 0 0 0 0 0 0 0 0 0 0 -0 -0 -0 -0 -0 -0
0 0 0 0 0 0 0 0 0 0 0 0 0 0 0 0 0 0 0 0 0 0 0 0 0 0 0 0 0 0 0 -0 -0 -0 -0 -0 -0 -0
0 0 0 0 0 0 0 0 0 0 0 0 0 0 0 0 0 0 0 0 0 0 0 0 0 0 0 0 0 0 0 -0 -0 -0 -0 -0 -0 -0
0 0 0 0 0 0 0 0 0 0 0 0 0 0 0 0 0 0 0 0 0 0 0 0 0 0 0 0 0 0 0 0 0 -0 -0 -0 -0 -0
Wind_Speed_500mb
18 17 16 17 18 19 21 24 26 21 32 26 40 50 52 51 51 49 50 53 57 58 59 59 60 61 57 65 69 68 69 71 73 74 76 77 78 81
20 20 20 20 21 21 23 24 27 29 25 41 46 51 54 53 52 50 51 55 59 59 59 61 61 62 61 75 74 69 72 73 76 77 77 79 83 87
25 25 25 24 25 26 25 27 30 34 40 46 47 50 55 57 54 52 55 57 62 62 63 67 62 70 76 81 78 79 76 78 81 78 80 85 86 89
30 30 30 31 31 29 28 30 33 37 42 48 51 54 56 57 59 55 55 56 64 67 62 66 70 76 84 79 81 79 82 87 81 82 84 85 89 92
36 37 38 37 36 35 34 35 37 39 42 48 53 56 59 60 60 60 61 59 64 73 66 69 80 83 84 78 81 83 84 83 82 84 84 87 93 96
42 44 43 42 43 41 41 42 41 40 40 46 51 56 59 60 64 71 70 68 69 74 68 75 85 89 80 85 83 83 80 81 80 82 88 95 94 95
49 50 49 50 50 48 48 46 46 41 43 47 51 55 58 62 64 69 75 80 76 84 84 83 97 92 88 91 88 78 78 74 81 91 93 94 96 93
55 56 55 57 56 53 52 50 51 46 46 49 51 55 55 59 62 66 72 79 87 75 99 98 97 93 101 100 90 84 69 78 90 91 94 95 93 97
59 59 61 63 61 57 55 54 54 50 49 53 52 53 56 56 60 66 66 71 75 85 92 108 95 107 105 105 84 92 76 98 95 93 93 95 97 99
62 62 65 66 64 60 59 60 56 55 52 52 53 50 52 56 58 61 65 72 74 76 85 91 104 113 114 109 92 104 104 102 102 99 94 96 100 104
66 67 68 69 63 62 68 65 61 60 53 54 55 51 51 53 57 61 60 69 81 81 69 80 102 118 122 110 105 109 105 109 108 98 99 106 108 107
71 70 69 71 68 68 71 70 69 61 56 54 50 49 49 52 56 58 60 62 66 75 60 86 86 91 110 117 128 114 111 110 105 96 104 115 111 126
79 76 72 68 72 72 71 72 69 57 57 54 49 47 49 52 53 54 54 56 61 64 62 65 76 78 76 105 127 112 113 112 101 107 113 119 122 128
86 82 77 71 67 69 63 59 61 65 63 56 50 48 47 50 52 52 51 49 51 57 58 55 66 67 76 98 98 108 105 104 97 114 124 125 136 148
87 86 77 76 71 64 58 58 67 72 67 55 51 49 47 50 52 50 50 51 47 46 47 51 55 62 66 79 84 89 104 105 104 116 122 128 142 146
80 77 81 76 75 69 66 60 73 73 63 56 52 49 47 49 50 50 51 54 55 45 37 46 49 55 66 66 60 75 84 85 105 109 120 127 131 137
71 73 75 79 81 79 77 69 74 76 68 59 53 49 48 48 47 48 49 52 51 54 54 48 45 50 53 58 56 66 81 82 92 105 119 129 124 131
65 74 69 74 82 83 83 79 73 72 66 58 52 48 45 45 46 45 46 46 47 45 47 51 58 61 60 59 47 71 73 78 87 102 108 112 116 128
70 76 84 79 78 77 81 80 78 70 61 54 50 45 42 44 44 42 41 41 38 35 34 41 46 54 62 66 40 61 68 66 84 94 98 100 96 104
85 89 89 85 85 77 71 66 69 68 58 49 45 43 44 38 39 36 35 35 32 27 27 30 36 41 46 52 58 55 46 58 71 77 88 93 83 92
72 88 92 92 85 80 76 65 60 60 51 42 45 43 36 35 33 31 28 27 23 23 24 26 30 34 37 40 45 56 28 26 48 58 65 80 85 97
69 77 82 86 88 81 75 73 64 57 47 45 42 38 32 28 25 23 20 17 16 19 21 23 26 29 32 36 42 49 43 34 27 40 56 60 69 69
68 66 69 73 73 81 79 70 62 50 46 42 38 31 25 21 19 15 12 10 11 15 17 20 25 27 27 29 35 41 39 35 35 34 47 50 54 59
Wind_Direction_500mb
310 302 306 313 317 319 323 329 332 326 325 328 327 328 328 330 331 332 330 331 330 334 334 334 335 332 330 331 326 323 322 320 317 314 312 311 309 307
297 297 303 303 305 310 313 318 323 321 314 320 328 326 327 329 330 332 332 333 331 335 338 339 338 333 331 334 328 324 322 319 317 314 313 311 308 305
295 294 293 297 298 299 305 313 316 315 314 318 324 326 326 328 328 331 333 334 332 337 343 339 337 337 337 335 329 328 324 320 318 316 314 310 308 304
288 288 289 289 289 292 298 304 306 309 310 316 323 326 326 325 325 328 330 333 332 335 344 336 336 338 336 333 331 331 326 321 318 317 313 311 308 304
285 284 282 284 286 289 292 296 299 301 307 312 319 324 323 323 323 325 329 333 334 333 341 333 337 336 335 332 334 333 326 322 319 317 314 309 306 304
279 278 280 282 281 284 286 290 292 294 301 308 314 318 319 322 324 326 328 330 336 332 336 338 333 334 334 332 339 335 329 323 320 316 311 309 308 303
279 281 281 279 278 281 282 283 285 291 299 304 309 314 317 320 324 326 327 329 334 334 332 336 331 331 335 336 342 339 328 322 318 315 313 311 308 305
282 282 280 280 281 281 281 283 285 292 295 298 307 310 315 317 320 324 327 330 332 338 329 331 332 333 338 337 345 342 326 323 321 318 315 312 309 306
281 281 281 280 279 278 278 278 280 287 290 294 302 308 309 313 318 322 326 325 326 332 327 328 332 330 335 336 344 348 328 335 330 322 318 314 311 308
284 284 280 279 277 277 275 273 275 277 280 286 295 300 307 314 317 320 323 321 320 327 332 326 330 329 332 337 343 347 338 339 335 331 325 321 316 312
287 284 282 280 280 277 272 271 272 271 275 282 292 299 305 309 312 316 319 321 324 331 333 329 330 330 332 337 338 343 341 340 340 336 334 334 332 322
289 286 283 282 281 276 270 270 268 269 270 275 282 289 297 305 310 315 318 321 323 329 334 327 329 338 332 331 332 343 343 342 340 339 341 345 346 338
287 286 285 283 280 276 270 266 269 270 267 271 276 283 294 302 308 311 313 317 320 320 328 325 323 330 326 323 330 342 342 341 342 345 347 350 352 339
286 287 286 285 278 272 263 259 259 263 269 269 274 283 293 300 303 307 309 313 319 319 321 320 319 326 326 323 328 339 339 345 348 349 350 353 354 343
285 286 286 282 278 271 255 250 252 257 267 265 273 281 288 295 300 306 310 314 318 316 316 317 320 324 327 323 326 337 340 348 354 355 355 0 358 345
284 282 283 280 277 270 263 246 249 255 264 270 274 280 288 295 302 308 312 315 317 319 320 319 325 326 328 333 334 337 348 345 355 360 359 4 360 353
282 276 272 268 264 260 263 258 254 257 262 268 272 278 285 293 302 306 311 315 318 323 327 328 331 332 335 340 347 350 353 357 1 4 7 3 358 359
287 284 276 267 263 262 261 262 259 257 259 265 268 273 283 295 300 304 309 313 317 324 328 332 336 339 344 359 7 356 357 357 4 11 12 358 356 6
274 274 276 273 271 268 264 262 260 259 259 261 264 271 282 291 297 303 306 310 314 321 328 334 341 344 351 352 3 9 353 359 3 10 14 6 357 6
271 274 275 275 274 273 270 264 256 252 253 255 259 268 279 289 296 301 304 306 310 322 332 339 340 348 352 344 335 1 7 355 359 5 14 8 13 24
276 273 270 274 276 275 269 261 249 246 249 251 258 267 279 286 293 297 300 304 313 325 337 344 345 345 341 338 336 350 14 7 4 12 19 12 14 24
286 272 277 275 271 272 268 254 241 239 246 251 258 267 275 283 289 292 292 293 304 321 340 352 344 338 342 345 346 352 359 5 22 33 40 38 25 22
292 284 277 273 274 268 262 243 232 238 245 246 254 262 264 274 279 284 288 299 311 319 338 350 348 347 348 348 347 360 360 8 19 35 38 38 41 40
Wind_Speed_850mb
18 17 16 17 18 19 21 24 26 21 32 26 40 50 52 51 51 49 50 53 57 58 59 59 60 61 57 65 69 68 69 71 73 74 76 77 78 81
20 20 20 20 21 21 23 24 27 29 25 41 46 51 54 53 52 50 51 55 59 59 59 61 61 62 61 75 74 69 72 73 76 77 77 79 83 87
25 25 25 24 25 26 25 27 30 34 40 46 47 50 55 57 54 52 55 57 62 62 63 67 62 70 76 81 78 79 76 78 81 78 80 85 86 89
30 30 30 31 31 29 28 30 33 37 42 48 51 54 56 57 59 55 55 56 64 67 62 66 70 76 84 79 81 79 82 87 81 82 84 85 89 92
36 37 38 37 36 35 34 35 37 39 42 48 53 56 59 60 60 60 61 59 64 73 66 69 80 83 84 78 81 83 84 83 82 84 84 87 93 96
42 44 43 42 43 41 41 42 41 40 40 46 51 56 59 60 64 71 70 68 69 74 68 75 85 89 80 85 83 83 80 81 80 82 88 95 94 95
49 50 49 50 50 48 48 46 46 41 43 47 51 55 58 62 64 69 75 80 76 84 84 83 97 92 88 91 88 78 78 74 81 91 93 94 96 93
55 56 55 57 56 53 52 50 51 46 46 49 51 55 55 59 62 66 72 79 87 75 99 98 97 93 101 100 90 84 69 78 90 91 94 95 93 97
59 59 61 63 61 57 55 54 54 50 49 53 52 53 56 56 60 66 66 71 75 85 92 108 95 107 105 105 84 92 76 98 95 93 93 95 97 99
62 62 65 66 64 60 59 60 56 55 52 52 53 50 52 56 58 61 65 72 74 76 85 91 104 113 114 109 92 104 104 102 102 99 94 96 100 104
66 67 68 69 63 62 68 65 61 60 53 54 55 51 51 53 57 61 60 69 81 81 69 80 102 118 122 110 105 109 105 109 108 98 99 106 108 107
71 70 69 71 68 68 71 70 69 61 56 54 50 49 49 52 56 58 60 62 66 75 60 86 86 91 110 117 128 114 111 110 105 96 104 115 111 126
79 76 72 68 72 72 71 72 69 57 57 54 49 47 49 52 53 54 54 56 61 64 62 65 76 78 76 105 127 112 113 112 101 107 113 119 122 128
86 82 77 71 67 69 63 59 61 65 63 56 50 48 47 50 52 52 51 49 51 57 58 55 66 67 76 98 98 108 105 104 97 114 124 125 136 148
87 86 77 76 71 64 58 58 67 72 67 55 51 49 47 50 52 50 50 51 47 46 47 51 55 62 66 79 84 89 104 105 104 116 122 128 142 146
80 77 81 76 75 69 66 60 73 73 63 56 52 49 47 49 50 50 51 54 55 45 37 46 49 55 66 66 60 75 84 85 105 109 120 127 131 137
71 73 75 79 81 79 77 69 74 76 68 59 53 49 48 48 47 48 49 52 51 54 54 48 45 50 53 58 56 66 81 82 92 105 119 129 124 131
65 74 69 74 82 83 83 79 73 72 66 58 52 48 45 45 46 45 46 46 47 45 47 51 58 61 60 59 47 71 73 78 87 102 108 112 116 128
70 76 84 79 78 77 81 80 78 70 61 54 50 45 42 44 44 42 41 41 38 35 34 41 46 54 62 66 40 61 68 66 84 94 98 100 96 104
85 89 89 85 85 77 71 66 69 68 58 49 45 43 44 38 39 36 35 35 32 27 27 30 36 41 46 52 58 55 46 58 71 77 88 93 83 92
72 88 92 92 85 80 76 65 60 60 51 42 45 43 36 35 33 31 28 27 23 23 24 26 30 34 37 40 45 56 28 26 48 58 65 80 85 97
69 77 82 86 88 81 75 73 64 57 47 45 42 38 32 28 25 23 20 17 16 19 21 23 26 29 32 36 42 49 43 34 27 40 56 60 69 69
68 66 69 73 73 81 79 70 62 50 46 42 38 31 25 21 19 15 12 10 11 15 17 20 25 27 27 29 35 41 39 35 35 34 47 50 54 59
Wind_Direction_850mb
310 302 306 313 317 319 323 329 332 326 325 328 327 328 328 330 331 332 330 331 330 334 334 334 335 332 330 331 326 323 322 320 317 314 312 311 309 307
297 297 303 303 305 310 313 318 323 321 314 320 328 326 327 329 330 332 332 333 331 335 338 339 338 333 331 334 328 324 322 319 317 314 313 311 308 305
295 294 293 297 298 299 305 313 316 315 314 318 324 326 326 328 328 331 333 334 332 337 343 339 337 337 337 335 329 328 324 320 318 316 314 310 308 304
288 288 289 289 289 292 298 304 306 309 310 316 323 326 326 325 325 328 330 333 332 335 344 336 336 338 336 333 331 331 326 321 318 317 313 311 308 304
285 284 282 284 286 289 292 296 299 301 307 312 319 324 323 323 323 325 329 333 334 333 341 333 337 336 335 332 334 333 326 322 319 317 314 309 306 304
279 278 280 282 281 284 286 290 292 294 301 308 314 318 319 322 324 326 328 330 336 332 336 338 333 334 334 332 339 335 329 323 320 316 311 309 308 303
279 281 281 279 278 281 282 283 285 291 299 304 309 314 317 320 324 326 327 329 334 334 332 336 331 331 335 336 342 339 328 322 318 315 313 311 308 305
282 282 280 280 281 281 281 283 285 292 295 298 307 310 315 317 320 324 327 330 332 338 329 331 332 333 338 337 345 342 326 323 321 318 315 312 309 306
281 281 281 280 279 278 278 278 280 287 290 294 302 308 309 313 318 322 326 325 326 332 327 328 332 330 335 336 344 348 328 335 330 322 318 314 311 308
284 284 280 279 277 277 275 273 275 277 280 286 295 300 307 314 317 320 323 321 320 327 332 326 330 329 332 337 343 347 338 339 335 331 325 321 316 312
287 284 282 280 280 277 272 271 272 271 275 282 292 299 305 309 312 316 319 321 324 331 333 329 330 330 332 337 338 343 341 340 340 336 334 334 332 322
289 286 283 282 281 276 270 270 268 269 270 275 282 289 297 305 310 315 318 321 323 329 334 327 329 338 332 331 332 343 343 342 340 339 341 345 346 338
287 286 285 283 280 276 270 266 269 270 267 271 276 283 294 302 308 311 313 317 320 320 328 325 323 330 326 323 330 342 342 341 342 345 347 350 352 339
286 287 286 285 278 272 263 259 259 263 269 269 274 283 293 300 303 307 309 313 319 319 321 320 319 326 326 323 328 339 339 345 348 349 350 353 354 343
285 286 286 282 278 271 255 250 252 257 267 265 273 281 288 295 300 306 310 314 318 316 316 317 320 324 327 323 326 337 340 348 354 355 355 0 358 345
284 282 283 280 277 270 263 246 249 255 264 270 274 280 288 295 302 308 312 315 317 319 320 319 325 326 328 333 334 337 348 345 355 360 359 4 360 353
282 276 272 268 264 260 263 258 254 257 262 268 272 278 285 293 302 306 311 315 318 323 327 328 331 332 335 340 347 350 353 357 1 4 7 3 358 359
287 284 276 267 263 262 261 262 259 257 259 265 268 273 283 295 300 304 309 313 317 324 328 332 336 339 344 359 7 356 357 357 4 11 12 358 356 6
274 274 276 273 271 268 264 262 260 259 259 261 264 271 282 291 297 303 306 310 314 321 328 334 341 344 351 352 3 9 353 359 3 10 14 6 357 6
271 274 275 275 274 273 270 264 256 252 253 255 259 268 279 289 296 301 304 306 310 322 332 339 340 348 352 344 335 1 7 355 359 5 14 8 13 24
276 273 270 274 276 275 269 261 249 246 249 251 258 267 279 286 293 297 300 304 313 325 337 344 345 345 341 338 336 350 14 7 4 12 19 12 14 24
286 272 277 275 271 272 268 254 241 239 246 251 258 267 275 283 289 292 292 293 304 321 340 352 344 338 342 345 346 352 359 5 22 33 40 38 25 22
292 284 277 273 274 268 262 243 232 238 245 246 254 262 264 274 279 284 288 299 311 319 338 350 348 347 348 348 347 360 360 8 19 35 38 38 41 40